| time (UTC) | temp F | wind direction | speed MPH | gust MPH | rain 1hr in | rain 24hr in | rain mn in | humidity % | barometer mb |
| 20260904070508 | 65 | 258 | 9.0 | 13.0 | 0.00 | 0.00 | 0.00 | 85 | 1011.4 |
| 20260904070453 | 65 | 264 | 10.0 | 14.0 | 0.00 | 0.04 | 0.00 | 85 | 1013.4 |
| 20260904065958 | 65 | 252 | 8.0 | 14.0 | 0.00 | 0.04 | 0.00 | 85 | 1013.3 |
| 20260904065508 | 65 | 262 | 8.0 | 15.0 | 0.00 | 0.00 | 0.00 | 86 | 1011.3 |
| 20260904065453 | 64 | 258 | 8.0 | 15.0 | 0.00 | 0.04 | 0.00 | 85 | 1013.3 |
| 20260904065008 | 65 | 271 | 9.0 | 15.0 | 0.00 | 0.00 | 0.00 | 86 | 1011.6 |
| 20260904064952 | 64 | 253 | 9.0 | 15.0 | 0.00 | 0.04 | 0.00 | 86 | 1013.5 |
| 20260904064507 | 64 | 249 | 9.0 | 15.0 | 0.00 | 0.00 | 0.00 | 86 | 1011.6 |
| 20260904064453 | 64 | 264 | 8.0 | 15.0 | 0.00 | 0.04 | 0.00 | 86 | 1013.6 |
| 20260904064008 | 64 | 245 | 9.0 | 13.0 | 0.00 | 0.00 | 0.00 | 86 | 1011.6 |
| 20260904063953 | 64 | 263 | 9.0 | 14.0 | 0.00 | 0.04 | 0.00 | 86 | 1013.5 |
| 20260904063453 | 64 | 254 | 10.0 | 14.0 | 0.00 | 0.04 | 0.00 | 86 | 1013.6 |
| 20260904063008 | 64 | 284 | 11.0 | 15.0 | 0.00 | 0.00 | 0.00 | 86 | 1011.9 |
| 20260904062953 | 64 | 266 | 11.0 | 14.0 | 0.00 | 0.04 | 0.00 | 86 | 1013.7 |
| 20260904062508 | 64 | 269 | 10.0 | 15.0 | 0.00 | 0.00 | 0.00 | 86 | 1011.7 |
| 20260904062452 | 63 | 257 | 9.0 | 14.0 | 0.00 | 0.04 | 0.00 | 86 | 1013.5 |
| 20260904062007 | 63 | 256 | 8.0 | 10.0 | 0.00 | 0.00 | 0.00 | 86 | 1011.5 |
| 20260904061952 | 63 | 247 | 9.0 | 11.0 | 0.00 | 0.04 | 0.00 | 86 | 1013.5 |
| 20260904061453 | 63 | 253 | 9.0 | 12.0 | 0.00 | 0.04 | 0.00 | 86 | 1013.6 |
| 20260904061008 | 63 | 298 | 9.0 | 12.0 | 0.00 | 0.00 | 0.00 | 86 | 1011.6 |
| 20260904060953 | 63 | 247 | 9.0 | 12.0 | 0.00 | 0.04 | 0.00 | 86 | 1013.2 |
| 20260904060507 | 63 | 290 | 8.0 | 9.0 | 0.00 | 0.00 | 0.00 | 86 | 1011.3 |
| 20260904060008 | 63 | 244 | 7.0 | 10.0 | 0.00 | 0.00 | 0.00 | 86 | 1011.2 |
| 20260904055958 | 63 | 256 | 7.0 | 10.0 | 0.00 | 0.04 | 0.00 | 86 | 1013.3 |
| 20260904055452 | 63 | 283 | 8.0 | 10.0 | 0.00 | 0.04 | 0.00 | 87 | 1013.5 |
| 20260904055008 | 63 | 278 | 7.0 | 8.0 | 0.00 | 0.00 | 0.00 | 86 | 1011.5 |
| 20260904054508 | 63 | 242 | 6.0 | 8.0 | 0.00 | 0.00 | 0.00 | 87 | 1011.4 |
| 20260904054453 | 63 | 275 | 6.0 | 8.0 | 0.00 | 0.04 | 0.00 | 87 | 1013.4 |
| 20260904054008 | 62 | 226 | 6.0 | 8.0 | 0.00 | 0.00 | 0.00 | 88 | 1011.3 |
| 20260904053953 | 62 | 246 | 6.0 | 8.0 | 0.00 | 0.04 | 0.00 | 88 | 1013.4 |
| 20260904053507 | 62 | 254 | 6.0 | 9.0 | 0.00 | 0.00 | 0.00 | 88 | 1011.4 |
| 20260904053453 | 62 | 232 | 6.0 | 8.0 | 0.00 | 0.04 | 0.00 | 88 | 1013.5 |
| 20260904052508 | 62 | 233 | 6.0 | 10.0 | 0.00 | 0.00 | 0.00 | 88 | 1011.5 |
| 20260904052453 | 62 | 256 | 6.0 | 10.0 | 0.00 | 0.04 | 0.00 | 89 | 1013.3 |
| 20260904052007 | 62 | 246 | 6.0 | 11.0 | 0.00 | 0.00 | 0.00 | 88 | 1011.4 |
| 20260904051953 | 62 | 289 | 6.0 | 10.0 | 0.00 | 0.04 | 0.00 | 89 | 1013.4 |
| 20260904051508 | 62 | 256 | 8.0 | 11.0 | 0.00 | 0.00 | 0.00 | 88 | 1011.4 |
| 20260904051453 | 62 | 280 | 8.0 | 10.0 | 0.00 | 0.04 | 0.00 | 89 | 1013.5 |
| 20260904051008 | 62 | 256 | 8.0 | 9.0 | 0.00 | 0.00 | 0.00 | 89 | 1011.5 |
| 20260904050953 | 62 | 240 | 7.0 | 10.0 | 0.00 | 0.04 | 0.00 | 89 | 1013.5 |
| 20260904050507 | 62 | 243 | 7.0 | 9.0 | 0.00 | 0.00 | 0.00 | 89 | 1011.6 |
| 20260904050453 | 62 | 229 | 7.0 | 9.0 | 0.00 | 0.04 | 0.00 | 90 | 1013.5 |
| 20260904050008 | 62 | 240 | 7.0 | 9.0 | 0.00 | 0.00 | 0.00 | 89 | 1011.7 |
| 20260904045959 | 62 | 243 | 7.0 | 9.0 | 0.00 | 0.04 | 0.00 | 90 | 1013.7 |
| 20260904045453 | 62 | 249 | 7.0 | 11.0 | 0.00 | 0.04 | 0.00 | 90 | 1013.6 |
| 20260904044953 | 62 | 261 | 7.0 | 11.0 | 0.00 | 0.04 | 0.00 | 90 | 1013.5 |
| 20260904044453 | 62 | 262 | 7.0 | 10.0 | 0.00 | 0.04 | 0.00 | 90 | 1013.6 |
| 20260904044007 | 62 | 290 | 8.0 | 11.0 | 0.00 | 0.00 | 0.00 | 89 | 1011.6 |
| 20260904043953 | 62 | 282 | 8.0 | 11.0 | 0.00 | 0.04 | 0.00 | 90 | 1013.3 |
| 20260904043508 | 62 | 270 | 8.0 | 11.0 | 0.00 | 0.00 | 0.00 | 89 | 1011.8 |
| 20260904043453 | 62 | 320 | 8.0 | 11.0 | 0.00 | 0.04 | 0.00 | 90 | 1013.7 |
| 20260904043008 | 62 | 253 | 7.0 | 8.0 | 0.00 | 0.00 | 0.00 | 89 | 1011.8 |
| 20260904042952 | 62 | 286 | 7.0 | 8.0 | 0.00 | 0.04 | 0.00 | 90 | 1014.0 |
| 20260904042507 | 62 | 248 | 8.0 | 11.0 | 0.00 | 0.00 | 0.00 | 89 | 1011.8 |
| 20260904042453 | 62 | 268 | 8.0 | 11.0 | 0.00 | 0.04 | 0.00 | 90 | 1014.0 |
| 20260904042008 | 62 | 258 | 8.0 | 11.0 | 0.00 | 0.00 | 0.00 | 89 | 1011.6 |
| 20260904041953 | 62 | 280 | 8.0 | 11.0 | 0.00 | 0.04 | 0.00 | 90 | 1013.6 |
| 20260904041508 | 62 | 306 | 8.0 | 11.0 | 0.00 | 0.00 | 0.00 | 89 | 1011.8 |
| 20260904041453 | 62 | 279 | 7.0 | 10.0 | 0.00 | 0.04 | 0.00 | 90 | 1013.9 |
| 20260904040953 | 62 | 271 | 7.0 | 9.0 | 0.00 | 0.04 | 0.00 | 90 | 1013.5 |
| 20260904040508 | 62 | 346 | 7.0 | 9.0 | 0.00 | 0.00 | 0.00 | 88 | 1011.8 |
| 20260904040453 | 62 | 260 | 7.0 | 9.0 | 0.00 | 0.04 | 0.00 | 90 | 1013.9 |
| 20260904040008 | 62 | 267 | 8.0 | 9.0 | 0.00 | 0.00 | 0.00 | 88 | 1011.7 |
| 20260904035959 | 62 | 270 | 7.0 | 9.0 | 0.00 | 0.04 | 0.00 | 89 | 1013.6 |
| 20260904035452 | 62 | 278 | 7.0 | 9.0 | 0.00 | 0.04 | 0.00 | 88 | 1013.7 |
| 20260904035008 | 62 | 277 | 8.0 | 11.0 | 0.00 | 0.00 | 0.00 | 87 | 1011.7 |
| 20260904034953 | 62 | 261 | 8.0 | 11.0 | 0.00 | 0.04 | 0.00 | 88 | 1013.7 |
| 20260904034508 | 62 | 288 | 8.0 | 11.0 | 0.00 | 0.00 | 0.00 | 86 | 1011.7 |
| 20260904034007 | 62 | 278 | 8.0 | 10.0 | 0.00 | 0.00 | 0.00 | 85 | 1011.7 |
| 20260904033953 | 63 | 261 | 8.0 | 11.0 | 0.00 | 0.04 | 0.00 | 84 | 1013.6 |
| 20260904033507 | 63 | 270 | 8.0 | 10.0 | 0.00 | 0.00 | 0.00 | 83 | 1011.7 |
| 20260904033453 | 63 | 253 | 8.0 | 11.0 | 0.00 | 0.04 | 0.00 | 84 | 1013.6 |
| 20260904033008 | 63 | 273 | 7.0 | 10.0 | 0.00 | 0.00 | 0.00 | 83 | 1011.5 |
| 20260904032953 | 63 | 248 | 7.0 | 10.0 | 0.00 | 0.04 | 0.00 | 83 | 1013.5 |
| 20260904032507 | 63 | 255 | 7.0 | 10.0 | 0.00 | 0.00 | 0.00 | 83 | 1011.5 |
| 20260904032453 | 63 | 255 | 7.0 | 10.0 | 0.00 | 0.04 | 0.00 | 83 | 1013.5 |
| 20260904031953 | 63 | 264 | 6.0 | 10.0 | 0.00 | 0.04 | 0.00 | 83 | 1013.6 |
| 20260904031508 | 63 | 256 | 6.0 | 10.0 | 0.00 | 0.00 | 0.00 | 83 | 1011.8 |
| 20260904031007 | 63 | 255 | 6.0 | 10.0 | 0.00 | 0.00 | 0.00 | 82 | 1011.6 |
| 20260904030508 | 63 | 277 | 8.0 | 9.0 | 0.00 | 0.00 | 0.00 | 82 | 1011.6 |
| 20260904030453 | 63 | 240 | 8.0 | 10.0 | 0.00 | 0.04 | 0.00 | 82 | 1013.6 |
| 20260904030008 | 63 | 272 | 9.0 | 11.0 | 0.00 | 0.00 | 0.00 | 82 | 1011.7 |
| 20260904030002 | 63 | 248 | 9.0 | 11.0 | 0.00 | 0.04 | 0.00 | 82 | 1013.7 |
| 20260904025508 | 63 | 258 | 9.0 | 11.0 | 0.00 | 0.00 | 0.00 | 82 | 1011.7 |
| 20260904025453 | 63 | 251 | 9.0 | 11.0 | 0.00 | 0.04 | 0.00 | 82 | 1013.9 |
| 20260904025007 | 63 | 256 | 9.0 | 11.0 | 0.00 | 0.00 | 0.00 | 82 | 1011.8 |
| 20260904024953 | 63 | 268 | 9.0 | 11.0 | 0.00 | 0.04 | 0.00 | 82 | 1013.8 |
| 20260904024508 | 63 | 264 | 8.0 | 12.0 | 0.00 | 0.00 | 0.00 | 82 | 1012.0 |
| 20260904024007 | 63 | 269 | 8.0 | 12.0 | 0.00 | 0.00 | 0.00 | 82 | 1011.8 |
| 20260904023953 | 63 | 270 | 8.0 | 11.0 | 0.00 | 0.04 | 0.00 | 82 | 1013.8 |
| 20260904023507 | 63 | 268 | 8.0 | 12.0 | 0.00 | 0.00 | 0.00 | 82 | 1011.9 |
| 20260904022507 | 63 | 272 | 8.0 | 11.0 | 0.00 | 0.00 | 0.00 | 82 | 1011.7 |
| 20260904022453 | 63 | 266 | 8.0 | 12.0 | 0.00 | 0.04 | 0.00 | 82 | 1013.8 |
| 20260904022008 | 63 | 283 | 8.0 | 10.0 | 0.00 | 0.00 | 0.00 | 82 | 1011.9 |
| 20260904021953 | 63 | 273 | 8.0 | 11.0 | 0.00 | 0.04 | 0.00 | 82 | 1013.7 |
| 20260904021454 | 63 | 280 | 8.0 | 11.0 | 0.00 | 0.04 | 0.00 | 81 | 1013.8 |
| 20260904021007 | 63 | 305 | 9.0 | 11.0 | 0.00 | 0.00 | 0.00 | 81 | 1011.8 |
| 20260904020953 | 63 | 310 | 8.0 | 11.0 | 0.00 | 0.04 | 0.00 | 81 | 1013.6 |
| 20260904020508 | 63 | 321 | 10.0 | 13.0 | 0.00 | 0.00 | 0.00 | 81 | 1011.7 |
| 20260904020453 | 63 | 314 | 9.0 | 13.0 | 0.00 | 0.04 | 0.00 | 81 | 1013.8 |
| 20260904020007 | 63 | 304 | 9.0 | 13.0 | 0.00 | 0.00 | 0.00 | 81 | 1011.8 |
| 20260904015959 | 63 | 304 | 9.0 | 13.0 | 0.00 | 0.04 | 0.00 | 81 | 1013.9 |
| 20260904015507 | 63 | 269 | 8.0 | 11.0 | 0.00 | 0.00 | 0.00 | 80 | 1011.7 |
| 20260904015453 | 63 | 286 | 8.0 | 11.0 | 0.00 | 0.04 | 0.00 | 80 | 1013.7 |
| 20260904014953 | 63 | 272 | 7.0 | 10.0 | 0.00 | 0.04 | 0.00 | 79 | 1014.0 |
| 20260904014507 | 64 | 253 | 9.0 | 12.0 | 0.00 | 0.00 | 0.00 | 80 | 1011.8 |
| 20260904014453 | 64 | 287 | 9.0 | 13.0 | 0.00 | 0.04 | 0.00 | 79 | 1013.9 |
| 20260904014008 | 64 | 245 | 10.0 | 15.0 | 0.00 | 0.00 | 0.00 | 79 | 1011.9 |
| 20260904013953 | 64 | 294 | 10.0 | 15.0 | 0.00 | 0.04 | 0.00 | 79 | 1013.9 |
| 20260904013453 | 64 | 286 | 10.0 | 15.0 | 0.00 | 0.04 | 0.00 | 78 | 1014.0 |
| 20260904013007 | 64 | 252 | 9.0 | 12.0 | 0.00 | 0.00 | 0.00 | 79 | 1011.8 |
| 20260904012953 | 64 | 266 | 9.0 | 11.0 | 0.00 | 0.04 | 0.00 | 78 | 1014.0 |
| 20260904012508 | 64 | 273 | 8.0 | 12.0 | 0.00 | 0.00 | 0.00 | 78 | 1011.9 |
| 20260904012453 | 64 | 252 | 9.0 | 11.0 | 0.00 | 0.04 | 0.00 | 78 | 1014.1 |
| 20260904011953 | 64 | 265 | 8.0 | 11.0 | 0.00 | 0.04 | 0.00 | 77 | 1013.9 |
| 20260904011507 | 64 | 266 | 8.0 | 9.0 | 0.00 | 0.00 | 0.00 | 78 | 1012.0 |
| 20260904011453 | 64 | 263 | 8.0 | 9.0 | 0.00 | 0.04 | 0.00 | 77 | 1014.0 |
| 20260904010953 | 63 | 254 | 8.0 | 11.0 | 0.00 | 0.04 | 0.00 | 77 | 1014.1 |
| 20260904010507 | 64 | 310 | 8.0 | 11.0 | 0.00 | 0.00 | 0.00 | 78 | 1012.0 |
| 20260904010453 | 63 | 259 | 8.0 | 11.0 | 0.00 | 0.04 | 0.00 | 77 | 1014.0 |
| 20260904010008 | 63 | 290 | 7.0 | 10.0 | 0.00 | 0.00 | 0.00 | 77 | 1011.9 |
| 20260904005958 | 63 | 240 | 8.0 | 10.0 | 0.00 | 0.04 | 0.00 | 77 | 1014.1 |
| 20260904005508 | 63 | 263 | 7.0 | 9.0 | 0.00 | 0.00 | 0.00 | 77 | 1012.0 |
| 20260904005453 | 63 | 234 | 7.0 | 9.0 | 0.00 | 0.04 | 0.00 | 77 | 1013.9 |
| 20260904005007 | 63 | 253 | 7.0 | 9.0 | 0.00 | 0.00 | 0.00 | 77 | 1012.0 |
| 20260904004953 | 63 | 257 | 7.0 | 9.0 | 0.00 | 0.04 | 0.00 | 77 | 1014.3 |
| 20260904004453 | 63 | 245 | 7.0 | 9.0 | 0.00 | 0.04 | 0.00 | 76 | 1014.1 |
| 20260904004008 | 63 | 240 | 6.0 | 8.0 | 0.00 | 0.00 | 0.00 | 76 | 1012.0 |
| 20260904003953 | 63 | 243 | 6.0 | 9.0 | 0.00 | 0.04 | 0.00 | 76 | 1014.1 |
| 20260904003507 | 63 | 226 | 4.0 | 6.0 | 0.00 | 0.00 | 0.00 | 76 | 1012.2 |
| 20260904003453 | 63 | 246 | 5.0 | 7.0 | 0.00 | 0.04 | 0.00 | 75 | 1014.1 |
| 20260904003008 | 63 | 239 | 4.0 | 6.0 | 0.00 | 0.00 | 0.00 | 75 | 1012.1 |
| 20260904002953 | 63 | 246 | 5.0 | 5.0 | 0.00 | 0.04 | 0.00 | 75 | 1014.1 |
| 20260904002508 | 63 | 243 | 5.0 | 6.0 | 0.00 | 0.00 | 0.00 | 75 | 1012.4 |
| 20260904002453 | 63 | 273 | 5.0 | 7.0 | 0.00 | 0.04 | 0.00 | 75 | 1013.9 |
| 20260904002007 | 63 | 239 | 5.0 | 6.0 | 0.00 | 0.00 | 0.00 | 74 | 1012.2 |
| 20260904001453 | 63 | 242 | 5.0 | 7.0 | 0.00 | 0.04 | 0.00 | 74 | 1014.3 |
| 20260904000953 | 63 | 228 | 5.0 | 6.0 | 0.00 | 0.04 | 0.00 | 73 | 1014.2 |
| 20260904000507 | 64 | 198 | 5.0 | 6.0 | 0.00 | 0.00 | 0.00 | 73 | 1012.4 |
| 20260904000455 | 64 | 233 | 5.0 | 7.0 | 0.00 | 0.04 | 0.00 | 73 | 1014.3 |
| 20260904000008 | 64 | 232 | 4.0 | 6.0 | 0.00 | 0.00 | 0.00 | 73 | 1012.5 |
| 20260903235959 | 64 | 238 | 4.0 | 7.0 | 0.00 | 0.04 | 0.00 | 73 | 1014.4 |
| 20260903235508 | 64 | 232 | 4.0 | 5.0 | 0.00 | 0.00 | 0.00 | 73 | 1012.4 |
| 20260903234453 | 64 | 245 | 5.0 | 6.0 | 0.00 | 0.04 | 0.00 | 72 | 1014.4 |
| 20260903233953 | 64 | 234 | 5.0 | 8.0 | 0.00 | 0.04 | 0.00 | 71 | 1014.5 |
| 20260903233507 | 64 | 246 | 3.0 | 8.0 | 0.00 | 0.00 | 0.00 | 72 | 1012.3 |
| 20260903233453 | 64 | 248 | 4.0 | 8.0 | 0.00 | 0.04 | 0.00 | 71 | 1014.4 |
| 20260903233008 | 64 | 241 | 3.0 | 4.0 | 0.00 | 0.00 | 0.00 | 71 | 1012.5 |
| 20260903232953 | 64 | 260 | 4.0 | 6.0 | 0.00 | 0.04 | 0.00 | 71 | 1014.4 |
| 20260903232007 | 65 | 272 | 5.0 | 8.0 | 0.00 | 0.00 | 0.00 | 70 | 1012.5 |
| 20260903231953 | 65 | 226 | 6.0 | 8.0 | 0.00 | 0.04 | 0.00 | 69 | 1014.5 |
| 20260903231508 | 65 | 269 | 7.0 | 9.0 | 0.00 | 0.00 | 0.00 | 70 | 1012.6 |
| 20260903231453 | 65 | 237 | 7.0 | 9.0 | 0.00 | 0.04 | 0.00 | 69 | 1014.5 |
| 20260903231008 | 65 | 262 | 7.0 | 9.0 | 0.00 | 0.00 | 0.00 | 70 | 1012.7 |
| 20260903230507 | 65 | 259 | 8.0 | 10.0 | 0.00 | 0.00 | 0.00 | 70 | 1012.7 |
| 20260903230453 | 65 | 269 | 8.0 | 10.0 | 0.00 | 0.04 | 0.00 | 69 | 1014.7 |
| 20260903230008 | 65 | 262 | 7.0 | 10.0 | 0.00 | 0.00 | 0.00 | 70 | 1012.7 |
| 20260903225959 | 65 | 276 | 7.0 | 10.0 | 0.00 | 0.04 | 0.00 | 69 | 1014.7 |
| 20260903225508 | 65 | 261 | 6.0 | 8.0 | 0.00 | 0.00 | 0.00 | 69 | 1012.8 |
| 20260903225453 | 65 | 273 | 6.0 | 8.0 | 0.00 | 0.04 | 0.00 | 68 | 1014.9 |
| 20260903225007 | 65 | 234 | 7.0 | 11.0 | 0.00 | 0.00 | 0.00 | 69 | 1012.7 |
| 20260903224508 | 65 | 248 | 8.0 | 11.0 | 0.00 | 0.00 | 0.00 | 69 | 1012.8 |
| 20260903224453 | 65 | 232 | 8.0 | 11.0 | 0.00 | 0.04 | 0.00 | 68 | 1014.8 |
| 20260903224007 | 65 | 261 | 8.0 | 11.0 | 0.00 | 0.00 | 0.00 | 69 | 1012.7 |
| 20260903223507 | 65 | 240 | 8.0 | 9.0 | 0.00 | 0.00 | 0.00 | 70 | 1012.8 |
| 20260903223453 | 65 | 242 | 8.0 | 11.0 | 0.00 | 0.04 | 0.00 | 68 | 1014.9 |
| 20260903223008 | 64 | 231 | 6.0 | 8.0 | 0.00 | 0.00 | 0.00 | 70 | 1012.8 |
| 20260903222953 | 64 | 242 | 6.0 | 10.0 | 0.00 | 0.04 | 0.00 | 68 | 1014.8 |
| 20260903222453 | 64 | 241 | 4.0 | 8.0 | 0.00 | 0.04 | 0.00 | 69 | 1014.4 |
| 20260903222007 | 64 | 228 | 4.0 | 8.0 | 0.00 | 0.00 | 0.00 | 71 | 1012.6 |
| 20260903221953 | 64 | 247 | 4.0 | 8.0 | 0.00 | 0.04 | 0.00 | 69 | 1014.8 |
| 20260903221507 | 64 | 246 | 3.0 | 4.0 | 0.00 | 0.00 | 0.00 | 71 | 1012.7 |
| 20260903221453 | 64 | 236 | 4.0 | 6.0 | 0.00 | 0.04 | 0.00 | 69 | 1014.6 |
| 20260903221007 | 64 | 268 | 3.0 | 4.0 | 0.00 | 0.00 | 0.00 | 71 | 1012.6 |
| 20260903220953 | 64 | 228 | 4.0 | 5.0 | 0.00 | 0.04 | 0.00 | 70 | 1014.6 |
| 20260903220507 | 64 | 264 | 3.0 | 4.0 | 0.00 | 0.00 | 0.00 | 71 | 1012.7 |
| 20260903220453 | 64 | 238 | 4.0 | 4.0 | 0.00 | 0.04 | 0.00 | 69 | 1014.7 |
| 20260903220008 | 64 | 245 | 3.0 | 5.0 | 0.00 | 0.00 | 0.00 | 71 | 1012.6 |
| 20260903220001 | 64 | 251 | 4.0 | 5.0 | 0.00 | 0.04 | 0.00 | 69 | 1014.7 |
| 20260903215508 | 64 | 241 | 4.0 | 5.0 | 0.00 | 0.00 | 0.00 | 71 | 1012.8 |
| 20260903215454 | 64 | 223 | 4.0 | 5.0 | 0.00 | 0.04 | 0.04 | 69 | 1014.5 |
| 20260903214953 | 64 | 209 | 3.0 | 4.0 | 0.00 | 0.04 | 0.04 | 69 | 1014.4 |
| 20260903214507 | 64 | 221 | 3.0 | 5.0 | 0.00 | 0.00 | 0.00 | 70 | 1012.7 |
| 20260903214453 | 64 | 215 | 3.0 | 4.0 | 0.00 | 0.04 | 0.04 | 69 | 1014.5 |
| 20260903214008 | 64 | 237 | 4.0 | 7.0 | 0.00 | 0.00 | 0.00 | 70 | 1012.7 |
| 20260903213953 | 64 | 221 | 4.0 | 8.0 | 0.00 | 0.04 | 0.04 | 69 | 1014.6 |
| 20260903213507 | 64 | 244 | 3.0 | 7.0 | 0.00 | 0.00 | 0.00 | 70 | 1012.7 |
| 20260903213453 | 64 | 224 | 4.0 | 8.0 | 0.00 | 0.04 | 0.04 | 69 | 1014.6 |
| 20260903213007 | 64 | 231 | 3.0 | 4.0 | 0.00 | 0.00 | 0.00 | 70 | 1012.9 |
| 20260903212953 | 64 | 230 | 4.0 | 6.0 | 0.00 | 0.04 | 0.04 | 69 | 1014.8 |
| 20260903212508 | 64 | 227 | 3.0 | 6.0 | 0.00 | 0.00 | 0.00 | 70 | 1012.8 |
| 20260903212453 | 64 | 241 | 3.0 | 4.0 | 0.00 | 0.04 | 0.04 | 68 | 1014.8 |
| 20260903212007 | 64 | 223 | 3.0 | 6.0 | 0.00 | 0.00 | 0.00 | 69 | 1012.9 |
| 20260903211953 | 64 | 227 | 3.0 | 5.0 | 0.00 | 0.04 | 0.04 | 68 | 1015.0 |
| 20260903211507 | 64 | 191 | 3.0 | 5.0 | 0.00 | 0.00 | 0.00 | 69 | 1012.8 |
| 20260903210953 | 64 | 223 | 3.0 | 4.0 | 0.00 | 0.04 | 0.04 | 67 | 1014.7 |
| 20260903210507 | 64 | 236 | 4.0 | 6.0 | 0.00 | 0.00 | 0.00 | 69 | 1012.9 |
| 20260903210453 | 64 | 206 | 4.0 | 6.0 | 0.00 | 0.04 | 0.04 | 67 | 1015.0 |
| 20260903210007 | 64 | 238 | 4.0 | 6.0 | 0.00 | 0.00 | 0.00 | 69 | 1013.0 |
| 20260903205958 | 64 | 189 | 4.0 | 6.0 | 0.00 | 0.04 | 0.04 | 67 | 1014.9 |
| 20260903205508 | 64 | 237 | 4.0 | 6.0 | 0.00 | 0.00 | 0.00 | 69 | 1013.0 |
| 20260903205453 | 64 | 209 | 4.0 | 6.0 | 0.00 | 0.04 | 0.04 | 67 | 1014.8 |
| 20260903204007 | 64 | 219 | 2.0 | 5.0 | 0.00 | 0.00 | 0.00 | 69 | 1013.0 |
| 20260903203953 | 64 | 228 | 3.0 | 5.0 | 0.00 | 0.04 | 0.04 | 67 | 1015.0 |
| 20260903203507 | 64 | 230 | 2.0 | 5.0 | 0.00 | 0.00 | 0.00 | 69 | 1013.2 |
| 20260903203453 | 64 | 229 | 3.0 | 5.0 | 0.00 | 0.04 | 0.04 | 67 | 1015.0 |
| 20260903203008 | 64 | 240 | 2.0 | 3.0 | 0.00 | 0.00 | 0.00 | 69 | 1013.2 |
| 20260903202453 | 64 | 200 | 3.0 | 4.0 | 0.00 | 0.04 | 0.04 | 67 | 1014.9 |
| 20260903202007 | 64 | 175 | 2.0 | 4.0 | 0.00 | 0.00 | 0.00 | 69 | 1013.1 |
| 20260903201953 | 64 | 200 | 3.0 | 4.0 | 0.00 | 0.04 | 0.04 | 67 | 1015.1 |
| 20260903201507 | 64 | 195 | 1.0 | 2.0 | 0.00 | 0.00 | 0.00 | 69 | 1013.2 |
| 20260903201453 | 64 | 197 | 2.0 | 3.0 | 0.00 | 0.04 | 0.04 | 67 | 1015.3 |
| 20260903201007 | 64 | 181 | 0.0 | 2.0 | 0.00 | 0.00 | 0.00 | 69 | 1013.4 |
| 20260903200953 | 64 | 189 | 2.0 | 3.0 | 0.00 | 0.04 | 0.04 | 67 | 1015.0 |
| 20260903200507 | 64 | 222 | 0.0 | 1.0 | 0.00 | 0.00 | 0.00 | 68 | 1013.4 |
| 20260903200454 | 64 | 187 | 2.0 | 3.0 | 0.00 | 0.04 | 0.04 | 67 | 1015.6 |
| 20260903200007 | 64 | 261 | 1.0 | 4.0 | 0.00 | 0.00 | 0.00 | 68 | 1013.4 |
| 20260903195958 | 64 | 203 | 2.0 | 4.0 | 0.00 | 0.04 | 0.04 | 67 | 1015.4 |
| 20260903195507 | 64 | 225 | 2.0 | 4.0 | 0.00 | 0.00 | 0.00 | 68 | 1013.4 |
| 20260903195453 | 64 | 198 | 3.0 | 4.0 | 0.00 | 0.04 | 0.04 | 67 | 1015.3 |
| 20260903195007 | 65 | 202 | 2.0 | 4.0 | 0.00 | 0.00 | 0.00 | 68 | 1013.4 |
| 20260903194955 | 65 | 189 | 3.0 | 4.0 | 0.00 | 0.04 | 0.04 | 67 | 1015.3 |
| 20260903194508 | 65 | 192 | 2.0 | 4.0 | 0.00 | 0.00 | 0.00 | 68 | 1013.5 |
| 20260903193953 | 65 | 179 | 2.0 | 4.0 | 0.00 | 0.04 | 0.04 | 67 | 1015.4 |
| 20260903193454 | 65 | 193 | 2.0 | 3.0 | 0.00 | 0.04 | 0.04 | 67 | 1015.3 |
| 20260903193007 | 65 | 205 | 0.0 | 2.0 | 0.00 | 0.00 | 0.00 | 68 | 1013.5 |
| 20260903192953 | 65 | 196 | 2.0 | 2.0 | 0.00 | 0.04 | 0.04 | 67 | 1015.4 |
| 20260903192453 | 65 | 192 | 1.0 | 2.0 | 0.00 | 0.04 | 0.04 | 67 | 1015.4 |
| 20260903192008 | 65 | 0 | 0.0 | 0.0 | 0.00 | 0.00 | 0.00 | 69 | 1013.6 |
| 20260903191953 | 65 | 195 | 1.0 | 2.0 | 0.00 | 0.04 | 0.04 | 67 | 1015.4 |
| 20260903191507 | 65 | 270 | 0.0 | 2.0 | 0.00 | 0.00 | 0.00 | 69 | 1013.6 |
| 20260903191453 | 65 | 194 | 2.0 | 2.0 | 0.00 | 0.04 | 0.04 | 67 | 1015.4 |
| 20260903191007 | 65 | 253 | 1.0 | 5.0 | 0.00 | 0.00 | 0.00 | 69 | 1013.7 |
| 20260903190953 | 65 | 196 | 2.0 | 5.0 | 0.00 | 0.04 | 0.04 | 68 | 1015.7 |
| 20260903190508 | 65 | 196 | 2.0 | 5.0 | 0.00 | 0.00 | 0.00 | 69 | 1013.8 |
| 20260903190453 | 65 | 188 | 3.0 | 5.0 | 0.00 | 0.04 | 0.04 | 68 | 1015.7 |
| 20260903190007 | 65 | 187 | 2.0 | 5.0 | 0.00 | 0.00 | 0.00 | 69 | 1013.7 |
| 20260903185959 | 65 | 190 | 3.0 | 5.0 | 0.00 | 0.04 | 0.04 | 68 | 1015.8 |
| 20260903185454 | 65 | 197 | 3.0 | 5.0 | 0.00 | 0.04 | 0.04 | 69 | 1015.7 |
| 20260903185008 | 65 | 202 | 1.0 | 3.0 | 0.00 | 0.00 | 0.00 | 69 | 1014.0 |
| 20260903184953 | 65 | 187 | 3.0 | 4.0 | 0.00 | 0.04 | 0.04 | 68 | 1015.9 |
| 20260903184507 | 65 | 181 | 1.0 | 3.0 | 0.00 | 0.00 | 0.00 | 69 | 1013.8 |
| 20260903184453 | 65 | 181 | 2.0 | 3.0 | 0.00 | 0.04 | 0.04 | 68 | 1015.7 |
| 20260903184008 | 65 | 186 | 2.0 | 4.0 | 0.00 | 0.00 | 0.00 | 69 | 1014.0 |
| 20260903183954 | 65 | 157 | 3.0 | 5.0 | 0.00 | 0.04 | 0.04 | 68 | 1015.9 |
| 20260903183507 | 65 | 181 | 3.0 | 4.0 | 0.00 | 0.00 | 0.00 | 69 | 1014.0 |
| 20260903183453 | 65 | 158 | 4.0 | 5.0 | 0.00 | 0.04 | 0.04 | 68 | 1016.0 |
| 20260903183007 | 65 | 172 | 1.0 | 4.0 | 0.00 | 0.00 | 0.00 | 69 | 1013.9 |
| 20260903182953 | 65 | 174 | 3.0 | 4.0 | 0.00 | 0.04 | 0.04 | 68 | 1015.7 |
| 20260903182508 | 65 | 181 | 0.0 | 1.0 | 0.00 | 0.00 | 0.00 | 69 | 1013.9 |
| 20260903182453 | 65 | 181 | 1.0 | 2.0 | 0.00 | 0.04 | 0.04 | 67 | 1015.9 |
| 20260903182008 | 65 | 181 | 0.0 | 2.0 | 0.00 | 0.00 | 0.00 | 69 | 1014.0 |
| 20260903181953 | 65 | 181 | 1.0 | 3.0 | 0.00 | 0.04 | 0.04 | 67 | 1016.0 |
| 20260903181508 | 65 | 181 | 0.0 | 2.0 | 0.00 | 0.00 | 0.00 | 69 | 1014.0 |
| 20260903181453 | 65 | 181 | 2.0 | 3.0 | 0.00 | 0.04 | 0.04 | 67 | 1015.8 |
| 20260903181007 | 66 | 0 | 0.0 | 0.0 | 0.00 | 0.00 | 0.00 | 68 | 1014.2 |
| 20260903180953 | 66 | 181 | 1.0 | 2.0 | 0.00 | 0.04 | 0.04 | 67 | 1015.9 |
| 20260903180507 | 66 | 0 | 0.0 | 0.0 | 0.00 | 0.00 | 0.00 | 68 | 1014.1 |
| 20260903180453 | 66 | 181 | 2.0 | 2.0 | 0.00 | 0.04 | 0.04 | 67 | 1015.9 |
| 20260903180008 | 66 | 0 | 0.0 | 0.0 | 0.00 | 0.00 | 0.00 | 68 | 1013.9 |
| 20260903175959 | 66 | 183 | 1.0 | 2.0 | 0.00 | 0.04 | 0.04 | 67 | 1016.2 |
| 20260903175508 | 66 | 0 | 0.0 | 0.0 | 0.00 | 0.00 | 0.00 | 68 | 1013.9 |
| 20260903175453 | 66 | 212 | 1.0 | 2.0 | 0.00 | 0.04 | 0.04 | 67 | 1015.8 |
| 20260903175007 | 66 | 0 | 0.0 | 0.0 | 0.00 | 0.00 | 0.00 | 68 | 1013.9 |
| 20260903174953 | 66 | 234 | 2.0 | 3.0 | 0.00 | 0.04 | 0.04 | 67 | 1015.7 |
| 20260903174507 | 66 | 237 | 1.0 | 6.0 | 0.00 | 0.00 | 0.00 | 68 | 1014.1 |
| 20260903174453 | 66 | 245 | 3.0 | 5.0 | 0.00 | 0.04 | 0.04 | 67 | 1015.9 |
| 20260903174007 | 66 | 251 | 3.0 | 6.0 | 0.00 | 0.00 | 0.00 | 68 | 1014.1 |
| 20260903173953 | 66 | 261 | 4.0 | 6.0 | 0.00 | 0.04 | 0.04 | 67 | 1015.8 |
| 20260903173507 | 66 | 260 | 4.0 | 6.0 | 0.00 | 0.00 | 0.00 | 68 | 1014.0 |
| 20260903173454 | 66 | 268 | 4.0 | 6.0 | 0.00 | 0.04 | 0.04 | 65 | 1016.0 |
| 20260903173007 | 66 | 276 | 4.0 | 6.0 | 0.00 | 0.00 | 0.00 | 66 | 1014.0 |
| 20260903172508 | 66 | 290 | 5.0 | 8.0 | 0.00 | 0.00 | 0.00 | 66 | 1014.0 |
| 20260903172454 | 66 | 254 | 6.0 | 8.0 | 0.00 | 0.04 | 0.04 | 65 | 1016.0 |
| 20260903172007 | 67 | 270 | 5.0 | 8.0 | 0.00 | 0.00 | 0.00 | 66 | 1014.1 |
| 20260903171953 | 67 | 255 | 5.0 | 8.0 | 0.00 | 0.04 | 0.04 | 65 | 1015.9 |
| 20260903171507 | 67 | 249 | 4.0 | 6.0 | 0.00 | 0.00 | 0.00 | 65 | 1014.0 |
| 20260903171454 | 67 | 265 | 5.0 | 6.0 | 0.00 | 0.04 | 0.04 | 64 | 1016.0 |
| 20260903171007 | 67 | 253 | 4.0 | 5.0 | 0.00 | 0.00 | 0.00 | 65 | 1014.0 |
| 20260903170453 | 67 | 281 | 5.0 | 7.0 | 0.00 | 0.04 | 0.04 | 64 | 1015.9 |
| 20260903170007 | 68 | 264 | 7.0 | 8.0 | 0.00 | 0.00 | 0.00 | 64 | 1013.8 |
| 20260903165959 | 68 | 281 | 7.0 | 9.0 | 0.00 | 0.04 | 0.04 | 63 | 1015.9 |
| 20260903165507 | 68 | 260 | 7.0 | 9.0 | 0.00 | 0.00 | 0.00 | 62 | 1013.8 |
| 20260903165453 | 68 | 273 | 7.0 | 9.0 | 0.00 | 0.04 | 0.04 | 61 | 1015.9 |
| 20260903165007 | 69 | 248 | 7.0 | 9.0 | 0.00 | 0.00 | 0.00 | 62 | 1013.9 |
| 20260903164953 | 68 | 272 | 7.0 | 9.0 | 0.00 | 0.04 | 0.04 | 60 | 1015.8 |
| 20260903164507 | 69 | 245 | 6.0 | 8.0 | 0.00 | 0.00 | 0.00 | 61 | 1013.7 |
| 20260903164453 | 69 | 283 | 7.0 | 8.0 | 0.00 | 0.04 | 0.04 | 59 | 1015.7 |
| 20260903164008 | 69 | 247 | 8.0 | 11.0 | 0.00 | 0.00 | 0.00 | 60 | 1013.8 |
| 20260903163953 | 69 | 279 | 8.0 | 13.0 | 0.00 | 0.04 | 0.04 | 58 | 1015.6 |
| 20260903163507 | 69 | 248 | 9.0 | 14.0 | 0.00 | 0.00 | 0.00 | 60 | 1013.9 |
| 20260903163453 | 69 | 275 | 9.0 | 14.0 | 0.00 | 0.04 | 0.04 | 58 | 1015.5 |
| 20260903162953 | 69 | 268 | 11.0 | 15.0 | 0.00 | 0.04 | 0.04 | 58 | 1015.8 |
| 20260903162508 | 70 | 299 | 9.0 | 15.0 | 0.00 | 0.00 | 0.00 | 62 | 1013.9 |
| 20260903162453 | 69 | 260 | 10.0 | 15.0 | 0.00 | 0.04 | 0.04 | 60 | 1015.7 |
| 20260903162007 | 70 | 281 | 7.0 | 9.0 | 0.00 | 0.00 | 0.00 | 63 | 1013.9 |
| 20260903161953 | 70 | 271 | 7.0 | 10.0 | 0.00 | 0.04 | 0.04 | 61 | 1016.0 |
| 20260903161507 | 70 | 259 | 7.0 | 10.0 | 0.00 | 0.00 | 0.00 | 61 | 1013.9 |
| 20260903161453 | 70 | 269 | 5.0 | 9.0 | 0.00 | 0.04 | 0.04 | 60 | 1016.0 |
| 20260903161007 | 70 | 245 | 6.0 | 10.0 | 0.00 | 0.00 | 0.00 | 60 | 1013.9 |
| 20260903160953 | 70 | 240 | 4.0 | 9.0 | 0.00 | 0.04 | 0.04 | 58 | 1015.9 |
| 20260903160507 | 70 | 228 | 5.0 | 7.0 | 0.00 | 0.00 | 0.00 | 60 | 1014.0 |
| 20260903160453 | 70 | 251 | 4.0 | 8.0 | 0.00 | 0.04 | 0.04 | 58 | 1015.9 |
| 20260903160007 | 70 | 253 | 6.0 | 8.0 | 0.00 | 0.00 | 0.00 | 60 | 1013.8 |
| 20260903155959 | 70 | 267 | 6.0 | 8.0 | 0.00 | 0.04 | 0.04 | 58 | 1015.7 |
| 20260903155507 | 70 | 261 | 7.0 | 9.0 | 0.00 | 0.00 | 0.00 | 60 | 1013.9 |
| 20260903155453 | 70 | 260 | 7.0 | 9.0 | 0.00 | 0.04 | 0.04 | 58 | 1015.9 |
| 20260903155008 | 70 | 253 | 7.0 | 9.0 | 0.00 | 0.00 | 0.00 | 59 | 1014.0 |
| 20260903154507 | 71 | 262 | 7.0 | 8.0 | 0.00 | 0.00 | 0.00 | 60 | 1014.0 |
| 20260903154453 | 70 | 250 | 7.0 | 9.0 | 0.00 | 0.04 | 0.04 | 58 | 1015.9 |
| 20260903154007 | 70 | 266 | 7.0 | 8.0 | 0.00 | 0.00 | 0.00 | 60 | 1013.9 |
| 20260903153953 | 70 | 246 | 7.0 | 9.0 | 0.00 | 0.04 | 0.04 | 58 | 1016.0 |
| 20260903153507 | 70 | 238 | 7.0 | 10.0 | 0.00 | 0.00 | 0.00 | 60 | 1014.2 |
| 20260903153453 | 70 | 270 | 7.0 | 11.0 | 0.00 | 0.04 | 0.04 | 58 | 1015.8 |
| 20260903153007 | 70 | 234 | 8.0 | 10.0 | 0.00 | 0.00 | 0.00 | 60 | 1014.1 |
| 20260903152953 | 70 | 289 | 8.0 | 11.0 | 0.00 | 0.04 | 0.04 | 58 | 1016.1 |
| 20260903152507 | 71 | 263 | 8.0 | 12.0 | 0.00 | 0.00 | 0.00 | 60 | 1014.2 |
| 20260903152453 | 70 | 298 | 8.0 | 12.0 | 0.00 | 0.04 | 0.04 | 59 | 1016.0 |
| 20260903151953 | 71 | 308 | 8.0 | 12.0 | 0.00 | 0.04 | 0.04 | 58 | 1016.2 |
| 20260903151507 | 71 | 311 | 8.0 | 11.0 | 0.00 | 0.00 | 0.00 | 59 | 1014.2 |
| 20260903151453 | 71 | 309 | 8.0 | 11.0 | 0.00 | 0.04 | 0.04 | 58 | 1016.1 |
| 20260903151007 | 71 | 296 | 8.0 | 11.0 | 0.00 | 0.00 | 0.00 | 59 | 1014.3 |
| 20260903150953 | 71 | 300 | 9.0 | 12.0 | 0.00 | 0.04 | 0.04 | 57 | 1016.2 |
| 20260903150453 | 71 | 294 | 9.0 | 14.0 | 0.00 | 0.04 | 0.04 | 57 | 1016.4 |
| 20260903150007 | 71 | 266 | 9.0 | 13.0 | 0.00 | 0.00 | 0.00 | 57 | 1014.3 |
| 20260903145959 | 71 | 297 | 9.0 | 14.0 | 0.00 | 0.04 | 0.04 | 56 | 1016.4 |
| 20260903145507 | 71 | 270 | 9.0 | 13.0 | 0.00 | 0.00 | 0.00 | 57 | 1014.3 |
| 20260903145453 | 71 | 281 | 9.0 | 15.0 | 0.00 | 0.04 | 0.04 | 56 | 1016.4 |
| 20260903144507 | 72 | 232 | 10.0 | 15.0 | 0.00 | 0.00 | 0.00 | 55 | 1014.4 |
| 20260903144453 | 71 | 247 | 10.0 | 15.0 | 0.00 | 0.04 | 0.04 | 55 | 1016.4 |
| 20260903144007 | 72 | 230 | 9.0 | 13.0 | 0.00 | 0.00 | 0.00 | 55 | 1014.4 |
| 20260903143953 | 72 | 247 | 10.0 | 14.0 | 0.00 | 0.04 | 0.04 | 54 | 1016.4 |
| 20260903143453 | 72 | 262 | 7.0 | 12.0 | 0.00 | 0.04 | 0.04 | 53 | 1016.5 |
| 20260903143007 | 72 | 297 | 7.0 | 10.0 | 0.00 | 0.00 | 0.00 | 55 | 1014.3 |
| 20260903142953 | 72 | 258 | 7.0 | 11.0 | 0.00 | 0.04 | 0.04 | 53 | 1016.4 |
| 20260903142507 | 72 | 276 | 8.0 | 11.0 | 0.00 | 0.00 | 0.00 | 55 | 1014.3 |
| 20260903142453 | 72 | 272 | 8.0 | 11.0 | 0.04 | 0.04 | 0.04 | 54 | 1016.6 |
| 20260903142007 | 72 | 276 | 10.0 | 12.0 | 0.00 | 0.00 | 0.00 | 53 | 1014.5 |
| 20260903141953 | 72 | 297 | 9.0 | 14.0 | 0.04 | 0.04 | 0.04 | 52 | 1016.2 |
| 20260903141507 | 72 | 293 | 9.0 | 12.0 | 0.00 | 0.00 | 0.00 | 53 | 1014.5 |
| 20260903141453 | 72 | 315 | 9.0 | 14.0 | 0.04 | 0.04 | 0.04 | 51 | 1016.6 |